Time,TemperatureF,DewpointF,PressureIn,WindDirection,WindDirectionDegrees,WindSpeedMPH,WindSpeedGustMPH,Humidity,HourlyPrecipIn,Conditions,Clouds,dailyrainin,SoftwareType,DateUTC
2013-12-12 07:42:00,11.0,6.0,-100.00,SW,230,5.0,-999.0,80,-99.99,,,-99.99,,2013-12-12 12:42:00,
2013-12-12 07:52:00,11.0,6.0,-100.00,SW,223,6.0,-999.0,80,-99.99,,,-99.99,,2013-12-12 12:52:00,
2013-12-12 08:22:00,12.0,7.0,-100.00,WSW,257,9.0,-999.0,79,-99.99,,,-99.99,,2013-12-12 13:22:00,
2013-12-12 08:42:00,12.0,7.0,-100.00,WSW,245,10.0,-999.0,78,-99.99,,,-99.99,,2013-12-12 13:42:00,
2013-12-12 08:52:00,13.0,8.0,-100.00,SW,236,9.0,-999.0,77,-99.99,,,-99.99,,2013-12-12 13:52:00,
2013-12-12 09:11:00,14.0,8.0,-100.00,WSW,254,14.0,-999.0,77,-99.99,,,-99.99,,2013-12-12 14:11:00,
2013-12-12 10:22:00,15.0,8.0,-100.00,WSW,252,14.0,-999.0,74,-99.99,,,-99.99,,2013-12-12 15:22:00,
2013-12-12 10:53:00,16.0,9.0,-100.00,WSW,240,15.0,-999.0,74,-99.99,,,-99.99,,2013-12-12 15:53:00,
2013-12-12 11:23:00,17.0,9.0,-100.00,WSW,237,15.0,-999.0,72,-99.99,,,-99.99,,2013-12-12 16:23:00,
2013-12-12 11:43:00,16.0,9.0,-100.00,SW,233,8.0,-999.0,72,-99.99,,,-99.99,,2013-12-12 16:43:00,
2013-12-12 12:23:00,18.0,8.0,-100.00,WSW,245,19.0,-999.0,66,-99.99,,,-99.99,,2013-12-12 17:23:00,
2013-12-12 13:43:00,20.0,9.0,-100.00,SSW,196,12.0,-999.0,61,-99.99,,,-99.99,,2013-12-12 18:43:00,
2013-12-12 14:22:00,18.0,5.0,-100.00,SW,219,22.0,-999.0,56,-99.99,,,-99.99,,2013-12-12 19:22:00,
2013-12-12 16:11:00,18.0,7.0,-100.00,WSW,240,12.0,-999.0,60,-99.99,,,-99.99,,2013-12-12 21:11:00,
2013-12-12 16:53:00,19.0,7.0,-100.00,WSW,244,13.0,-999.0,59,-99.99,,,-99.99,,2013-12-12 21:53:00,
2013-12-12 17:12:00,18.0,7.0,-100.00,West,260,17.0,-999.0,60,-99.99,,,-99.99,,2013-12-12 22:12:00,
2013-12-12 17:23:00,18.0,7.0,-100.00,SW,224,15.0,-999.0,60,-99.99,,,-99.99,,2013-12-12 22:23:00,
2013-12-12 18:12:00,17.0,6.0,-100.00,WSW,243,24.0,-999.0,61,-99.99,,,-99.99,,2013-12-12 23:12:00,
2013-12-12 18:22:00,17.0,6.0,-100.00,WSW,254,25.0,-999.0,61,-99.99,,,-99.99,,2013-12-12 23:22:00,
2013-12-12 18:43:00,17.0,6.0,-100.00,WSW,252,26.0,-999.0,62,-99.99,,,-99.99,,2013-12-12 23:43:00,